Location: *
(55.6049°S, 142.1985°W)
Time: 00:31:47
(UTC+00:00)

Meteor 2-3 Rocket - Pass Details

Date: 12 May 2021
Orbit: 841 x 886 km, 81.2° (Epoch: 23 June)

Event Time Altitude Azimuth Distance (km) Brightness Sun altitude
Rises 16:30:00 0° 199° (SSW) 3,498 6.5 -6.3°
Reaches altitude 10° 16:32:40 10° 208° (SSW) 2,560 5.7 -5.9°
Maximum altitude 16:37:47 33° 269° (W) 1,454 4.5 -5.3°
Drops below altitude 10° 16:42:55 10° 331° (NNW) 2,557 6.2 -4.6°
Sets 16:45:34 0° 340° (NNW) 3,492 7.0 -4.3°
